NOAA 16 DEB, 42415

Orbit data source: Space-Track

NOAA 16 DEB, 42415 is space debris in SSO originally from a launch on Thu, 21 Sep 2000 UTC launched from the Air Force Western Test Range (AFWTR). Debris objects in space refer to the collection of defunct objects orbiting the Earth. Examples of debris include non-operational satellites, rocket bodies, and fragments generated from explosions, collisions, or faulty payload assembly.

Loading next visibility...
Identifier
42415, 2000-055TK
Orbit
SSO
Country
Flag of USUS
Related business
Manufacturer
Unknown
Mission
Spacecraft
Bus & Motor
Unknown
Mass
Unknown
Launch date (UTC)
2000-09-21 (25 years ago)
Launch vehicle
Unknown
Launch site
Air Force Western Test Range (AFWTR)
Object type
Payload
Rocket body
Debris
Shape & HBR
Unknown shape, 0.1 m
Radar Cross Section
Small (<0.1 m²)

Expand to show TLE details & history
Last TLE update: 1 day ago

TLE from 1 day ago
0 NOAA 16 DEB
1 42415U 00055TK  26033.46954725  .00007493  00000-0  21868-2 0  9992
2 42415  99.0208 215.5731 0024508 181.7991 178.3113 14.44208425514924
Epoch: 2026-02-02T11:16Z
TLE epoch observation values (Epoch: 2026-02-02T11:16:08.882Z)
Latitude
-0.00008°
Longitude
-86.12828°
Altitude
765.017 km
Speed
7.463 km/s
True Right ascension
14h 22m 17s
True Declination
0° 00' 00"
Sunlit
Object was in daylight at epoch
Visualization orbit readout
Latitude
Unknown
Longitude
Unknown
Altitude
Unknown
Speed
Unknown
Apparent Right ascension
Unknown
Apparent Declination
Unknown
Sunlit
N/A
Visualization observer readout
Local Sidereal Time
15:16:50
Azimuth
Unknown
Elevation
Unknown
Doppler factor
Unknown
Orbital elements
Apogee altitude
759.219 km
Perigee altitude
724.32 km
Semi-major axis
7,119.906 km
Eccentricity
0.00245
Inclination
99.0208°
RAAN
215.5731°
Arg. of periapsis
181.7991°
True anomaly
178.31955°
Mean anomaly
178.3113°
Eccentric anomaly
178.31543°
Mean motion
3.6127 °/min
Orbital period
99.65 mins
BSTAR
0.0021868
Loading maneuver chart data...
Computing Atmospheric mass density...
Loading historical data...
Loading historical data...
Loading historical data...
Loading historical data...
Loading historical data...
Loading historical data...
Loading historical data...

Documentation

Showing up to 5 results
|